Showing default

DUTHSAT-2, 64530

Orbit data source: Space-Track

DUTHSAT-2, 64530 is a payload satellite owned by DUTH (GR) in SSO that was launched on Mon, 23 Jun 2025 UTC via an FALCON 9 launch vehicle from the Air Force Western Test Range (AFWTR). Payload-class satellites include a variety of spacecraft equipped with specific instruments for various scientific and technological missions. These include communications satellites like Starlink; space stations such as the ISS; scientific satellites like the Hubble; Earth observation satellites from companies like Planet Labs, Umbra, and HawkEye 360; GPS; miniature CubeSats for education and research; and military/defense satellites.

Loading next visibility...
Identifier
64530, 2025-135C
Orbit
SSO
Country
Flag of GRGR / GREC
Related business
Manufacturer
DUTH
Mission
Operational Amateur Science
Bus & Motor
CUBESAT 6U, Unknown motor
Mass
10 kg wet, 10 kg dry
Launch date (UTC)
2025-06-23 (10 months ago)
Launch vehicle
FALCON 9
Launch site
Air Force Western Test Range (AFWTR)
Object type
Payload
Rocket body
Debris
Shape & HBR
Box, 0.1 m
Radar Cross Section
0.080 m², Medium (>0.1 m² and < 1m²)

Expand to show TLE details & history
Last TLE update: 9 hours ago

TLE from 9 hours ago
0 DUTHSAT-2
1 64530U 25135C   26104.85771330  .00007503  00000-0  29959-3 0  9993
2 64530  97.4538 220.8993 0005548  63.6877 296.4931 15.25425997 45279
Epoch: 2026-04-14T20:35Z
TLE epoch observation values (Epoch: 2026-04-14T20:35:06.429Z)
Latitude
0.00007°
Longitude
69.09456°
Altitude
490.904 km
Speed
7.62 km/s
True Right ascension
14h 43m 35s
True Declination
0° 00' 00"
Sunlit
Object was in full shadow at epoch
Visualization orbit readout
Latitude
Unknown
Longitude
Unknown
Altitude
Unknown
Speed
Unknown
Apparent Right ascension
Unknown
Apparent Declination
Unknown
Sunlit
N/A
Visualization observer readout
Local Sidereal Time
12:25:49
Azimuth
Unknown
Elevation
Unknown
Doppler factor
Unknown
Orbital elements
Apogee altitude
490.276 km
Perigee altitude
482.659 km
Semi-major axis
6,864.604 km
Eccentricity
0.00055
Inclination
97.4538°
RAAN
220.8993°
Arg. of periapsis
63.6877°
True anomaly
296.43618°
Mean anomaly
296.4931°
Eccentric anomaly
296.46464°
Mean motion
3.8161 °/min
Orbital period
94.34 mins
BSTAR
0.00029959
Loading maneuver chart data...
Computing Atmospheric mass density...
Loading historical data...
Loading historical data...
Loading historical data...
Loading historical data...
Loading historical data...
Loading historical data...
Loading historical data...

Documentation

Showing up to 5 results
|